Year,Month,Day,Hour,Minute,Value (Times are PST for temperature in C)
2020,12,04,00,00,7.30
2020,12,04,00,01,7.30
2020,12,04,00,02,7.30
2020,12,04,00,03,7.30
2020,12,04,00,04,7.30
2020,12,04,00,05,7.30
2020,12,04,00,06,7.30
2020,12,04,00,07,7.30
2020,12,04,00,08,7.30
2020,12,04,00,09,7.30
2020,12,04,00,10,7.30
2020,12,04,00,11,7.30
2020,12,04,00,12,7.30
2020,12,04,00,13,7.30
2020,12,04,00,14,7.30
2020,12,04,00,15,7.30
2020,12,04,00,16,7.30
2020,12,04,00,17,7.30
2020,12,04,00,18,7.30
2020,12,04,00,19,7.30
2020,12,04,00,20,7.30
2020,12,04,00,21,7.30
2020,12,04,00,22,7.30
2020,12,04,00,23,7.30
2020,12,04,00,24,7.30
2020,12,04,00,25,7.30
2020,12,04,00,26,7.30
2020,12,04,00,27,7.30
2020,12,04,00,28,7.30
2020,12,04,00,29,7.20
2020,12,04,00,30,7.30
2020,12,04,00,31,7.20
2020,12,04,00,32,7.20
2020,12,04,00,33,7.20
2020,12,04,00,34,7.20
2020,12,04,00,35,7.20
2020,12,04,00,36,7.20
2020,12,04,00,37,7.20
2020,12,04,00,38,7.20
2020,12,04,00,39,7.10
2020,12,04,00,40,7.10
2020,12,04,00,41,7.10
2020,12,04,00,42,7.10
2020,12,04,00,43,7.10
2020,12,04,00,44,7.10
2020,12,04,00,45,7.10
2020,12,04,00,46,7.10
2020,12,04,00,47,7.10
2020,12,04,00,48,7.10
2020,12,04,00,49,7.10
2020,12,04,00,50,7.10
2020,12,04,00,51,7.10
2020,12,04,00,52,7.10
2020,12,04,00,53,7.10
2020,12,04,00,54,7.10
2020,12,04,00,55,7.00
2020,12,04,00,56,7.00
2020,12,04,00,57,7.00
2020,12,04,00,58,6.90
2020,12,04,00,59,6.90
2020,12,04,01,00,6.90
2020,12,04,01,01,6.90
2020,12,04,01,02,6.80
2020,12,04,01,03,6.80
2020,12,04,01,04,6.80
2020,12,04,01,05,6.70
2020,12,04,01,06,6.70
2020,12,04,01,07,6.70
2020,12,04,01,08,6.70
2020,12,04,01,09,6.70
2020,12,04,01,10,6.70
2020,12,04,01,11,6.60
2020,12,04,01,12,6.60
2020,12,04,01,13,6.60
2020,12,04,01,14,6.50
2020,12,04,01,15,6.50
2020,12,04,01,16,6.40
2020,12,04,01,17,6.40
2020,12,04,01,18,6.30
2020,12,04,01,19,6.30
2020,12,04,01,20,6.20
2020,12,04,01,21,6.20
2020,12,04,01,22,6.20
2020,12,04,01,23,6.10
2020,12,04,01,24,6.10
2020,12,04,01,25,6.10
2020,12,04,01,26,6.10
2020,12,04,01,27,6.00
2020,12,04,01,28,6.00
2020,12,04,01,29,5.90
2020,12,04,01,30,5.90
2020,12,04,01,31,5.80
2020,12,04,01,32,5.80
2020,12,04,01,33,5.80
2020,12,04,01,34,5.70
2020,12,04,01,35,5.70
2020,12,04,01,36,5.70
2020,12,04,01,37,5.70
2020,12,04,01,38,5.70
2020,12,04,01,39,5.70
2020,12,04,01,40,5.70
2020,12,04,01,41,5.70
2020,12,04,01,42,5.70
2020,12,04,01,43,5.60
2020,12,04,01,44,5.60
2020,12,04,01,45,5.60
2020,12,04,01,46,5.60
2020,12,04,01,47,5.60
2020,12,04,01,48,5.50
2020,12,04,01,49,5.50
2020,12,04,01,50,5.50
2020,12,04,01,51,5.40
2020,12,04,01,52,5.40
2020,12,04,01,53,5.30
2020,12,04,01,54,5.30
2020,12,04,01,55,5.30
2020,12,04,01,56,5.30
2020,12,04,01,57,5.30
2020,12,04,01,58,5.30
2020,12,04,01,59,5.30
2020,12,04,02,00,5.30
2020,12,04,02,01,5.30
2020,12,04,02,02,5.30
2020,12,04,02,03,5.20
2020,12,04,02,04,5.20
2020,12,04,02,05,5.10
2020,12,04,02,06,5.00
2020,12,04,02,07,5.00
2020,12,04,02,08,4.90
2020,12,04,02,09,4.90
2020,12,04,02,10,4.90
2020,12,04,02,11,4.90
2020,12,04,02,12,4.90
2020,12,04,02,13,4.90
2020,12,04,02,14,4.90
2020,12,04,02,15,4.90
2020,12,04,02,16,4.90
2020,12,04,02,17,4.90
2020,12,04,02,18,4.90
2020,12,04,02,19,5.00
2020,12,04,02,20,5.00
2020,12,04,02,21,5.10
2020,12,04,02,22,5.20
2020,12,04,02,23,5.20
2020,12,04,02,24,5.30
2020,12,04,02,25,5.30
2020,12,04,02,26,5.30
2020,12,04,02,27,5.30
2020,12,04,02,28,5.30
2020,12,04,02,29,5.30
2020,12,04,02,30,5.30
2020,12,04,02,31,5.30
2020,12,04,02,32,5.30
2020,12,04,02,33,5.20
2020,12,04,02,34,5.20
2020,12,04,02,35,5.20
2020,12,04,02,36,5.20
2020,12,04,02,37,5.20
2020,12,04,02,38,5.20
2020,12,04,02,39,5.20
2020,12,04,02,40,5.20
2020,12,04,02,41,5.20
2020,12,04,02,42,5.20
2020,12,04,02,43,5.20
2020,12,04,02,44,5.20
2020,12,04,02,45,5.30
2020,12,04,02,46,5.30
2020,12,04,02,47,5.30
2020,12,04,02,48,5.20
2020,12,04,02,49,5.20
2020,12,04,02,50,5.20
2020,12,04,02,51,5.20
2020,12,04,02,52,5.20
2020,12,04,02,53,5.30
2020,12,04,02,54,5.30
2020,12,04,02,55,5.30
2020,12,04,02,56,5.30
2020,12,04,02,57,5.30
2020,12,04,02,58,5.30
2020,12,04,02,59,5.30
2020,12,04,03,00,5.30
2020,12,04,03,01,5.30
2020,12,04,03,02,5.30
2020,12,04,03,03,5.30
2020,12,04,03,04,5.30
2020,12,04,03,05,5.30
2020,12,04,03,06,5.30
2020,12,04,03,07,5.30
2020,12,04,03,08,5.20
2020,12,04,03,09,5.20
2020,12,04,03,10,5.20
2020,12,04,03,11,5.20
2020,12,04,03,12,5.20
2020,12,04,03,13,5.20
2020,12,04,03,14,5.20
2020,12,04,03,15,5.20
2020,12,04,03,16,5.20
2020,12,04,03,17,5.10
2020,12,04,03,18,5.10
2020,12,04,03,19,5.10
2020,12,04,03,20,5.10
2020,12,04,03,21,5.10
2020,12,04,03,22,5.10
2020,12,04,03,23,5.10
2020,12,04,03,24,5.10
2020,12,04,03,25,5.10
2020,12,04,03,26,5.10
2020,12,04,03,27,5.10
2020,12,04,03,28,5.10
2020,12,04,03,29,5.10
2020,12,04,03,30,5.10
2020,12,04,03,31,5.10
2020,12,04,03,32,5.10
2020,12,04,03,33,5.10
2020,12,04,03,34,5.10
2020,12,04,03,35,5.10
2020,12,04,03,36,5.10
2020,12,04,03,37,5.10
2020,12,04,03,38,5.10
2020,12,04,03,39,5.00
2020,12,04,03,40,5.00
2020,12,04,03,41,5.00
2020,12,04,03,42,5.00
2020,12,04,03,43,5.00
2020,12,04,03,44,4.90
2020,12,04,03,45,4.90
2020,12,04,03,46,4.90
2020,12,04,03,47,4.90
2020,12,04,03,48,4.90
2020,12,04,03,49,4.80
2020,12,04,03,50,4.80
2020,12,04,03,51,4.80
2020,12,04,03,52,4.80
2020,12,04,03,53,4.80
2020,12,04,03,54,4.70
2020,12,04,03,55,4.70
2020,12,04,03,56,4.60
2020,12,04,03,57,4.60
2020,12,04,03,58,4.60
2020,12,04,03,59,4.70
2020,12,04,04,00,4.70
2020,12,04,04,01,4.70
2020,12,04,04,02,4.70
2020,12,04,04,03,4.70
2020,12,04,04,04,4.60
2020,12,04,04,05,4.60
2020,12,04,04,06,4.50
2020,12,04,04,07,4.50
2020,12,04,04,08,4.50
2020,12,04,04,09,4.40
2020,12,04,04,10,4.40
2020,12,04,04,11,4.30
2020,12,04,04,12,4.30
2020,12,04,04,13,4.30
2020,12,04,04,14,4.20
2020,12,04,04,15,4.20
2020,12,04,04,16,4.20
2020,12,04,04,17,4.20
2020,12,04,04,18,4.20
2020,12,04,04,19,4.20
2020,12,04,04,20,4.20
2020,12,04,04,21,4.20
2020,12,04,04,22,4.20
2020,12,04,04,23,4.10
2020,12,04,04,24,4.10
2020,12,04,04,25,4.20
2020,12,04,04,26,4.20
2020,12,04,04,27,4.20
2020,12,04,04,28,4.20
2020,12,04,04,29,4.20
2020,12,04,04,30,4.20
2020,12,04,04,31,4.20
2020,12,04,04,32,4.30
2020,12,04,04,33,4.30
2020,12,04,04,34,4.30
2020,12,04,04,35,4.30
2020,12,04,04,36,4.40
2020,12,04,04,37,4.40
2020,12,04,04,38,4.40
2020,12,04,04,39,4.40
2020,12,04,04,40,4.40
2020,12,04,04,41,4.40
2020,12,04,04,42,4.40
2020,12,04,04,43,4.40
2020,12,04,04,44,4.40
2020,12,04,04,45,4.40
2020,12,04,04,46,4.40
2020,12,04,04,47,4.40
2020,12,04,04,48,4.40
2020,12,04,04,49,4.40
2020,12,04,04,50,4.40
2020,12,04,04,51,4.40
2020,12,04,04,52,4.40
2020,12,04,04,53,4.40
2020,12,04,04,54,4.40
2020,12,04,04,55,4.40
2020,12,04,04,56,4.40
2020,12,04,04,57,4.40
2020,12,04,04,58,4.40
2020,12,04,04,59,4.40
2020,12,04,05,00,4.40
2020,12,04,05,01,4.40
2020,12,04,05,02,4.40
2020,12,04,05,03,4.40
2020,12,04,05,04,4.40
2020,12,04,05,05,4.40
2020,12,04,05,06,4.40
2020,12,04,05,07,4.40
2020,12,04,05,08,4.40
2020,12,04,05,09,4.40
2020,12,04,05,10,4.40
2020,12,04,05,11,4.40
2020,12,04,05,12,4.40
2020,12,04,05,13,4.40
2020,12,04,05,14,4.40
2020,12,04,05,15,4.40
2020,12,04,05,16,4.40
2020,12,04,05,17,4.40
2020,12,04,05,18,4.40
2020,12,04,05,19,4.50
2020,12,04,05,20,4.50
2020,12,04,05,21,4.60
2020,12,04,05,22,4.60
2020,12,04,05,23,4.60
2020,12,04,05,24,4.60
2020,12,04,05,25,4.60
2020,12,04,05,26,4.60
2020,12,04,05,27,4.50
2020,12,04,05,28,4.50
2020,12,04,05,29,4.50
2020,12,04,05,30,4.40
2020,12,04,05,31,4.30
2020,12,04,05,32,4.30
2020,12,04,05,33,4.30
2020,12,04,05,34,4.20
2020,12,04,05,35,4.20
2020,12,04,05,36,4.10
2020,12,04,05,37,4.10
2020,12,04,05,38,4.10
2020,12,04,05,39,4.10
2020,12,04,05,40,4.00
2020,12,04,05,41,4.00
2020,12,04,05,42,4.00
2020,12,04,05,43,4.00
2020,12,04,05,44,4.00
2020,12,04,05,45,4.00
2020,12,04,05,46,4.10
2020,12,04,05,47,4.20
2020,12,04,05,48,4.20
2020,12,04,05,49,4.30
2020,12,04,05,50,4.30
2020,12,04,05,51,4.30
2020,12,04,05,52,4.30
2020,12,04,05,53,4.20
2020,12,04,05,54,4.20
2020,12,04,05,55,4.20
2020,12,04,05,56,4.10
2020,12,04,05,57,4.10
2020,12,04,05,58,4.10
2020,12,04,05,59,4.10
2020,12,04,06,00,4.10
2020,12,04,06,01,4.10
2020,12,04,06,02,4.10
2020,12,04,06,03,4.10
2020,12,04,06,04,4.00
2020,12,04,06,05,4.00
2020,12,04,06,06,3.90
2020,12,04,06,07,3.90
2020,12,04,06,08,3.90
2020,12,04,06,09,4.00
2020,12,04,06,10,4.00
2020,12,04,06,11,4.10
2020,12,04,06,12,4.10
2020,12,04,06,13,4.20
2020,12,04,06,14,4.20
2020,12,04,06,15,4.10
2020,12,04,06,16,4.10
2020,12,04,06,17,4.00
2020,12,04,06,18,4.00
2020,12,04,06,19,4.00
2020,12,04,06,20,4.00
2020,12,04,06,21,4.00
2020,12,04,06,22,4.00
2020,12,04,06,23,4.00
2020,12,04,06,24,3.90
2020,12,04,06,25,4.00
2020,12,04,06,26,4.00
2020,12,04,06,27,4.00
2020,12,04,06,28,4.10
2020,12,04,06,29,4.10
2020,12,04,06,30,4.10
2020,12,04,06,31,4.10
2020,12,04,06,32,4.10
2020,12,04,06,33,4.20
2020,12,04,06,34,4.20
2020,12,04,06,35,4.20
2020,12,04,06,36,4.20
2020,12,04,06,37,4.20
2020,12,04,06,38,4.30
2020,12,04,06,39,4.20
2020,12,04,06,40,4.30
2020,12,04,06,41,4.30
2020,12,04,06,42,4.30
2020,12,04,06,43,4.30
2020,12,04,06,44,4.30
2020,12,04,06,45,4.30
2020,12,04,06,46,4.30
2020,12,04,06,47,4.30
2020,12,04,06,48,4.20
2020,12,04,06,49,4.20
2020,12,04,06,50,4.20
2020,12,04,06,51,4.20
2020,12,04,06,52,4.20
2020,12,04,06,53,4.20
2020,12,04,06,54,4.20
2020,12,04,06,55,4.20
2020,12,04,06,56,4.20
2020,12,04,06,57,4.30
2020,12,04,06,58,4.30
2020,12,04,06,59,4.30
2020,12,04,07,00,4.20
2020,12,04,07,01,4.20
2020,12,04,07,02,4.30
2020,12,04,07,03,4.30
2020,12,04,07,04,4.30
2020,12,04,07,05,4.30
2020,12,04,07,06,4.40
2020,12,04,07,07,4.40
2020,12,04,07,08,4.40
2020,12,04,07,09,4.40
2020,12,04,07,10,4.30
2020,12,04,07,11,4.30
2020,12,04,07,12,4.30
2020,12,04,07,13,4.30
2020,12,04,07,14,4.30
2020,12,04,07,15,4.20
2020,12,04,07,16,4.20
2020,12,04,07,17,4.10
2020,12,04,07,18,4.10
2020,12,04,07,19,4.10
2020,12,04,07,20,4.10
2020,12,04,07,21,4.10
2020,12,04,07,22,4.10
2020,12,04,07,23,4.10
2020,12,04,07,24,4.10
2020,12,04,07,25,4.10
2020,12,04,07,26,4.10
2020,12,04,07,27,4.10
2020,12,04,07,28,4.10
2020,12,04,07,29,4.10
2020,12,04,07,30,4.10
2020,12,04,07,31,4.10
2020,12,04,07,32,4.10
2020,12,04,07,33,4.00
2020,12,04,07,34,4.10
2020,12,04,07,35,4.10
2020,12,04,07,36,4.10
2020,12,04,07,37,4.10
2020,12,04,07,38,4.10
2020,12,04,07,39,4.10
2020,12,04,07,40,4.10
2020,12,04,07,41,4.00
2020,12,04,07,42,4.00
2020,12,04,07,43,4.00
2020,12,04,07,44,4.10
2020,12,04,07,45,4.00
2020,12,04,07,46,4.10
2020,12,04,07,47,4.10
2020,12,04,07,48,4.10
2020,12,04,07,49,4.10
2020,12,04,07,50,4.00
2020,12,04,07,51,4.00
2020,12,04,07,52,4.00
2020,12,04,07,53,4.00
2020,12,04,07,54,4.00
2020,12,04,07,55,4.00
2020,12,04,07,56,4.00
2020,12,04,07,57,3.90
2020,12,04,07,58,3.90
2020,12,04,07,59,4.00
2020,12,04,08,00,4.00
2020,12,04,08,01,4.00
2020,12,04,08,02,4.10
2020,12,04,08,03,4.10
2020,12,04,08,04,4.10
2020,12,04,08,05,4.00
2020,12,04,08,06,4.00
2020,12,04,08,07,4.00
2020,12,04,08,08,4.10
2020,12,04,08,09,4.10
2020,12,04,08,10,4.10
2020,12,04,08,11,4.10
2020,12,04,08,12,4.20
2020,12,04,08,13,4.20
2020,12,04,08,14,4.20
2020,12,04,08,15,4.20
2020,12,04,08,16,4.20
2020,12,04,08,17,4.20
2020,12,04,08,18,4.20
2020,12,04,08,19,4.30
2020,12,04,08,20,4.30
2020,12,04,08,21,4.30
2020,12,04,08,22,4.30
2020,12,04,08,23,4.30
2020,12,04,08,24,4.30
2020,12,04,08,25,4.30
2020,12,04,08,26,4.40
2020,12,04,08,27,4.40
2020,12,04,08,28,4.40
2020,12,04,08,29,4.50
2020,12,04,08,30,4.60
2020,12,04,08,31,4.60
2020,12,04,08,32,4.60
2020,12,04,08,33,4.70
2020,12,04,08,34,4.80
2020,12,04,08,35,4.80
2020,12,04,08,36,4.80
2020,12,04,08,37,4.90
2020,12,04,08,38,5.00
2020,12,04,08,39,5.00
2020,12,04,08,40,5.10
2020,12,04,08,41,5.20
2020,12,04,08,42,5.20
2020,12,04,08,43,5.20
2020,12,04,08,44,5.20
2020,12,04,08,45,5.30
2020,12,04,08,46,5.30
2020,12,04,08,47,5.40
2020,12,04,08,48,5.50
2020,12,04,08,49,5.50
2020,12,04,08,50,5.60
2020,12,04,08,51,5.70
2020,12,04,08,52,5.70
2020,12,04,08,53,5.80
2020,12,04,08,54,5.80
2020,12,04,08,55,5.90
2020,12,04,08,56,6.00
2020,12,04,08,57,6.00
2020,12,04,08,58,6.10
2020,12,04,08,59,6.10
2020,12,04,09,00,6.20
2020,12,04,09,01,6.30
2020,12,04,09,02,6.30
2020,12,04,09,03,6.40
2020,12,04,09,04,6.50
2020,12,04,09,05,6.50
2020,12,04,09,06,6.60
2020,12,04,09,07,6.60
2020,12,04,09,08,6.60
2020,12,04,09,09,6.70
2020,12,04,09,10,6.70
2020,12,04,09,11,6.80
2020,12,04,09,12,6.80
2020,12,04,09,13,6.80
2020,12,04,09,14,6.90
2020,12,04,09,15,7.00
2020,12,04,09,16,7.00
2020,12,04,09,17,7.10
2020,12,04,09,18,7.10
2020,12,04,09,19,7.20
2020,12,04,09,20,7.20
2020,12,04,09,21,7.20
2020,12,04,09,22,7.30
2020,12,04,09,23,7.30
2020,12,04,09,24,7.30
2020,12,04,09,25,7.40
2020,12,04,09,26,7.50
2020,12,04,09,27,7.50
2020,12,04,09,28,7.60
2020,12,04,09,29,7.70
2020,12,04,09,30,7.80
2020,12,04,09,31,7.80
2020,12,04,09,32,7.80
2020,12,04,09,33,7.90
2020,12,04,09,34,7.90
2020,12,04,09,35,7.90
2020,12,04,09,36,8.00
2020,12,04,09,37,8.00
2020,12,04,09,38,8.10
2020,12,04,09,39,8.10
2020,12,04,09,40,8.20
2020,12,04,09,41,8.20
2020,12,04,09,42,8.20
2020,12,04,09,43,8.20
2020,12,04,09,44,8.20
2020,12,04,09,45,8.30
2020,12,04,09,46,8.30
2020,12,04,09,47,8.30
2020,12,04,09,48,8.30
2020,12,04,09,49,8.30
2020,12,04,09,50,8.40
2020,12,04,09,51,8.40
2020,12,04,09,52,8.40
2020,12,04,09,53,8.40
2020,12,04,09,54,8.50
2020,12,04,09,55,8.50
2020,12,04,09,56,8.60
2020,12,04,09,57,8.60
2020,12,04,09,58,8.60
2020,12,04,09,59,8.60
2020,12,04,10,00,8.70
2020,12,04,10,01,8.70
2020,12,04,10,02,8.70
2020,12,04,10,03,8.80
2020,12,04,10,04,8.80
2020,12,04,10,05,8.80
2020,12,04,10,06,8.90
2020,12,04,10,07,8.90
2020,12,04,10,08,8.90
2020,12,04,10,09,8.90
2020,12,04,10,10,8.90
2020,12,04,10,11,9.00
2020,12,04,10,12,9.00
2020,12,04,10,13,9.00
2020,12,04,10,14,9.10
2020,12,04,10,15,9.10
2020,12,04,10,16,9.10
2020,12,04,10,17,9.20
2020,12,04,10,18,9.20
2020,12,04,10,19,9.20
2020,12,04,10,20,9.20
2020,12,04,10,21,9.20
2020,12,04,10,22,9.30
2020,12,04,10,23,9.30
2020,12,04,10,24,9.30
2020,12,04,10,25,9.30
2020,12,04,10,26,9.40
2020,12,04,10,27,9.40
2020,12,04,10,28,9.40
2020,12,04,10,29,9.40
2020,12,04,10,30,9.50
2020,12,04,10,31,9.50
2020,12,04,10,32,9.60
2020,12,04,10,33,9.70
2020,12,04,10,34,9.70
2020,12,04,10,35,9.70
2020,12,04,10,36,9.70
2020,12,04,10,37,9.70
2020,12,04,10,38,9.70
2020,12,04,10,39,9.70
2020,12,04,10,40,9.80
2020,12,04,10,41,9.80
2020,12,04,10,42,9.90
2020,12,04,10,43,9.90
2020,12,04,10,44,9.90
2020,12,04,10,45,9.90
2020,12,04,10,46,10.00
2020,12,04,10,47,10.00
2020,12,04,10,48,10.00
2020,12,04,10,49,9.90
2020,12,04,10,50,9.90
2020,12,04,10,51,9.90
2020,12,04,10,52,9.90
2020,12,04,10,53,10.00
2020,12,04,10,54,10.00
2020,12,04,10,55,10.00
2020,12,04,10,56,10.00
2020,12,04,10,57,10.00
2020,12,04,10,58,10.00
2020,12,04,10,59,10.00
2020,12,04,11,00,10.10
2020,12,04,11,01,10.10
2020,12,04,11,02,10.10
2020,12,04,11,03,10.10
2020,12,04,11,04,10.20
2020,12,04,11,05,10.20
2020,12,04,11,06,10.20
2020,12,04,11,07,10.20
2020,12,04,11,08,10.30
2020,12,04,11,09,10.30
2020,12,04,11,10,10.30
2020,12,04,11,11,10.30
2020,12,04,11,12,10.30
2020,12,04,11,13,10.30
2020,12,04,11,14,10.30
2020,12,04,11,15,10.30
2020,12,04,11,16,10.30
2020,12,04,11,17,10.40
2020,12,04,11,18,10.30
2020,12,04,11,19,10.40
2020,12,04,11,20,10.40
2020,12,04,11,21,10.40
2020,12,04,11,22,10.40
2020,12,04,11,23,10.50
2020,12,04,11,24,10.50
2020,12,04,11,25,10.60
2020,12,04,11,26,10.60
2020,12,04,11,27,10.60
2020,12,04,11,28,10.60
2020,12,04,11,29,10.60
2020,12,04,11,30,10.60
2020,12,04,11,31,10.60
2020,12,04,11,32,10.70
2020,12,04,11,33,10.70
2020,12,04,11,34,10.80
2020,12,04,11,35,10.80
2020,12,04,11,36,10.80
2020,12,04,11,37,10.80
2020,12,04,11,38,10.80
2020,12,04,11,39,10.80
2020,12,04,11,40,10.80
2020,12,04,11,41,10.90
2020,12,04,11,42,10.90
2020,12,04,11,43,11.00
2020,12,04,11,44,11.00
2020,12,04,11,45,11.00
2020,12,04,11,46,11.00
2020,12,04,11,47,11.00
2020,12,04,11,48,11.00
2020,12,04,11,49,11.00
2020,12,04,11,50,11.10
2020,12,04,11,51,11.10
2020,12,04,11,52,11.10
2020,12,04,11,53,11.10
2020,12,04,11,54,11.10
2020,12,04,11,55,11.00
2020,12,04,11,56,11.10
2020,12,04,11,57,11.10
2020,12,04,11,58,11.10
2020,12,04,11,59,11.10
2020,12,04,12,00,11.10
2020,12,04,12,01,11.10
2020,12,04,12,02,11.20
2020,12,04,12,03,11.20
2020,12,04,12,04,11.20
2020,12,04,12,05,11.30
2020,12,04,12,06,11.30
2020,12,04,12,07,11.40
2020,12,04,12,08,11.40
2020,12,04,12,09,11.30
2020,12,04,12,10,11.30
2020,12,04,12,11,11.20
2020,12,04,12,12,11.20
2020,12,04,12,13,11.30
2020,12,04,12,14,11.30
2020,12,04,12,15,11.30
2020,12,04,12,16,11.30
2020,12,04,12,17,11.30
2020,12,04,12,18,11.30
2020,12,04,12,19,11.30
2020,12,04,12,20,11.30
2020,12,04,12,21,11.30
2020,12,04,12,22,11.30
2020,12,04,12,23,11.30
2020,12,04,12,24,11.40
2020,12,04,12,25,11.40
2020,12,04,12,26,11.50
2020,12,04,12,27,11.50
2020,12,04,12,28,11.50
2020,12,04,12,29,11.60
2020,12,04,12,30,11.60
2020,12,04,12,31,11.70
2020,12,04,12,32,11.70
2020,12,04,12,33,11.70
2020,12,04,12,34,11.70
2020,12,04,12,35,11.70
2020,12,04,12,36,11.70
2020,12,04,12,37,11.70
2020,12,04,12,38,11.70
2020,12,04,12,39,11.70
2020,12,04,12,40,11.70
2020,12,04,12,41,11.70
2020,12,04,12,42,11.70
2020,12,04,12,43,11.70
2020,12,04,12,44,11.70
2020,12,04,12,45,11.80
2020,12,04,12,46,11.80
2020,12,04,12,47,11.80
2020,12,04,12,48,11.80
2020,12,04,12,49,11.80
2020,12,04,12,50,11.70
2020,12,04,12,51,11.70
2020,12,04,12,52,11.70
2020,12,04,12,53,11.70
2020,12,04,12,54,11.80
2020,12,04,12,55,11.80
2020,12,04,12,56,11.70
2020,12,04,12,57,11.70
2020,12,04,12,58,11.80
2020,12,04,12,59,11.80
2020,12,04,13,00,11.80
2020,12,04,13,01,11.80
2020,12,04,13,02,11.80
2020,12,04,13,03,11.80
2020,12,04,13,04,11.80
2020,12,04,13,05,11.80
2020,12,04,13,06,11.90
2020,12,04,13,07,11.90
2020,12,04,13,08,11.80
2020,12,04,13,09,11.80
2020,12,04,13,10,11.80
2020,12,04,13,11,11.80
2020,12,04,13,12,11.80
2020,12,04,13,13,11.80
2020,12,04,13,14,11.80
2020,12,04,13,15,11.90
2020,12,04,13,16,11.90
2020,12,04,13,17,11.90
2020,12,04,13,18,11.90
2020,12,04,13,19,11.90
2020,12,04,13,20,12.00
2020,12,04,13,21,12.00
2020,12,04,13,22,12.10
2020,12,04,13,23,12.10
2020,12,04,13,24,12.10
2020,12,04,13,25,12.10
2020,12,04,13,26,12.10
2020,12,04,13,27,12.10
2020,12,04,13,28,12.10
2020,12,04,13,29,12.20
2020,12,04,13,30,12.20
2020,12,04,13,31,12.20
2020,12,04,13,32,12.20
2020,12,04,13,33,12.20
2020,12,04,13,34,12.20
2020,12,04,13,35,12.20
2020,12,04,13,36,12.20
2020,12,04,13,37,12.20
2020,12,04,13,38,12.20
2020,12,04,13,39,12.20
2020,12,04,13,40,12.10
2020,12,04,13,41,12.10
2020,12,04,13,42,12.10
2020,12,04,13,43,12.10
2020,12,04,13,44,12.10
2020,12,04,13,45,12.10
2020,12,04,13,46,12.10
2020,12,04,13,47,12.10
2020,12,04,13,48,12.10
2020,12,04,13,49,12.10
2020,12,04,13,50,12.10
2020,12,04,13,51,12.00
2020,12,04,13,52,12.00
2020,12,04,13,53,12.10
2020,12,04,13,54,12.10
2020,12,04,13,55,12.10
2020,12,04,13,56,12.10
2020,12,04,13,57,12.10
2020,12,04,13,58,12.10
2020,12,04,13,59,12.10
2020,12,04,14,00,12.10
2020,12,04,14,01,12.10
2020,12,04,14,02,12.00
2020,12,04,14,03,12.00
2020,12,04,14,04,12.00
2020,12,04,14,05,12.10
2020,12,04,14,06,12.10
2020,12,04,14,07,12.10
2020,12,04,14,08,12.10
2020,12,04,14,09,12.00
2020,12,04,14,10,12.00
2020,12,04,14,11,11.90
2020,12,04,14,12,11.90
2020,12,04,14,13,11.90
2020,12,04,14,14,11.80
2020,12,04,14,15,11.80
2020,12,04,14,16,11.80
2020,12,04,14,17,11.90
2020,12,04,14,18,11.90
2020,12,04,14,19,11.90
2020,12,04,14,20,11.90
2020,12,04,14,21,11.90
2020,12,04,14,22,11.90
2020,12,04,14,23,11.90
2020,12,04,14,24,11.90
2020,12,04,14,25,11.80
2020,12,04,14,26,11.90
2020,12,04,14,27,11.90
2020,12,04,14,28,11.90
2020,12,04,14,29,11.90
2020,12,04,14,30,11.90
2020,12,04,14,31,11.90
2020,12,04,14,32,11.90
2020,12,04,14,33,11.90
2020,12,04,14,34,11.90
2020,12,04,14,35,11.90
2020,12,04,14,36,11.90
2020,12,04,14,37,11.80
2020,12,04,14,38,11.80
2020,12,04,14,39,11.80
2020,12,04,14,40,11.80
2020,12,04,14,41,11.80
2020,12,04,14,42,11.80
2020,12,04,14,43,11.80
2020,12,04,14,44,11.80
2020,12,04,14,45,11.80
2020,12,04,14,46,11.80
2020,12,04,14,47,11.80
2020,12,04,14,48,11.80
2020,12,04,14,49,11.80
2020,12,04,14,50,11.80
2020,12,04,14,51,11.80
2020,12,04,14,52,11.80
2020,12,04,14,53,11.80
2020,12,04,14,54,11.80
2020,12,04,14,55,11.80
2020,12,04,14,56,11.80
2020,12,04,14,57,11.70
2020,12,04,14,58,11.70
2020,12,04,14,59,11.70
2020,12,04,15,00,11.70
2020,12,04,15,01,11.70
2020,12,04,15,02,11.60
2020,12,04,15,03,11.60
2020,12,04,15,04,11.50
2020,12,04,15,05,11.50
2020,12,04,15,06,11.40
2020,12,04,15,07,11.40
2020,12,04,15,08,11.30
2020,12,04,15,09,11.30
2020,12,04,15,10,11.30
2020,12,04,15,11,11.20
2020,12,04,15,12,11.20
2020,12,04,15,13,11.20
2020,12,04,15,14,11.10
2020,12,04,15,15,11.10
2020,12,04,15,16,11.00
2020,12,04,15,17,11.00
2020,12,04,15,18,10.90
2020,12,04,15,19,10.90
2020,12,04,15,20,10.90
2020,12,04,15,21,10.90
2020,12,04,15,22,10.90
2020,12,04,15,23,10.90
2020,12,04,15,24,10.90
2020,12,04,15,25,10.80
2020,12,04,15,26,10.80
2020,12,04,15,27,10.80
2020,12,04,15,28,10.80
2020,12,04,15,29,10.80
2020,12,04,15,30,10.80
2020,12,04,15,31,10.80
2020,12,04,15,32,10.70
2020,12,04,15,33,10.70
2020,12,04,15,34,10.70
2020,12,04,15,35,10.70
2020,12,04,15,36,10.80
2020,12,04,15,37,10.80
2020,12,04,15,38,10.80
2020,12,04,15,39,10.80
2020,12,04,15,40,10.80
2020,12,04,15,41,10.80
2020,12,04,15,42,10.80
2020,12,04,15,43,10.80
2020,12,04,15,44,10.80
2020,12,04,15,45,10.80
2020,12,04,15,46,10.80
2020,12,04,15,47,10.80
2020,12,04,15,48,10.80
2020,12,04,15,49,10.80
2020,12,04,15,50,10.80
2020,12,04,15,51,10.80
2020,12,04,15,52,10.80
2020,12,04,15,53,10.70
2020,12,04,15,54,10.60
2020,12,04,15,55,10.50
2020,12,04,15,56,10.40
2020,12,04,15,57,10.30
2020,12,04,15,58,10.20
2020,12,04,15,59,10.00
2020,12,04,16,00,10.00
2020,12,04,16,01,9.90
2020,12,04,16,02,9.80
2020,12,04,16,03,9.80
2020,12,04,16,04,9.70
2020,12,04,16,05,9.60
2020,12,04,16,06,9.50
2020,12,04,16,07,9.50
2020,12,04,16,08,9.30
2020,12,04,16,09,9.30
2020,12,04,16,10,9.20
2020,12,04,16,11,9.00
2020,12,04,16,12,8.90
2020,12,04,16,13,8.80
2020,12,04,16,14,8.70
2020,12,04,16,15,8.70
2020,12,04,16,16,8.60
2020,12,04,16,17,8.50
2020,12,04,16,18,8.40
2020,12,04,16,19,8.40
2020,12,04,16,20,8.30
2020,12,04,16,21,8.30
2020,12,04,16,22,8.20
2020,12,04,16,23,8.20
2020,12,04,16,24,8.10
2020,12,04,16,25,8.10
2020,12,04,16,26,8.10
2020,12,04,16,27,8.00
2020,12,04,16,28,8.00
2020,12,04,16,29,8.00
2020,12,04,16,30,7.90
2020,12,04,16,31,7.90
2020,12,04,16,32,7.90
2020,12,04,16,33,7.90
2020,12,04,16,34,7.90
2020,12,04,16,35,7.80
2020,12,04,16,36,7.80
2020,12,04,16,37,7.80
2020,12,04,16,38,7.70
2020,12,04,16,39,7.70
2020,12,04,16,40,7.70
2020,12,04,16,41,7.60
2020,12,04,16,42,7.60
2020,12,04,16,43,7.50
2020,12,04,16,44,7.50
2020,12,04,16,45,7.40
2020,12,04,16,46,7.40
2020,12,04,16,47,7.30
2020,12,04,16,48,7.20
2020,12,04,16,49,7.20
2020,12,04,16,50,7.10
2020,12,04,16,51,7.00
2020,12,04,16,52,6.90
2020,12,04,16,53,6.80
2020,12,04,16,54,6.70
2020,12,04,16,55,6.70
2020,12,04,16,56,6.70
2020,12,04,16,57,6.60
2020,12,04,16,58,6.60
2020,12,04,16,59,6.60
2020,12,04,17,00,6.60
2020,12,04,17,01,6.60
2020,12,04,17,02,6.50
2020,12,04,17,03,6.50
2020,12,04,17,04,6.40
2020,12,04,17,05,6.40
2020,12,04,17,06,6.40
2020,12,04,17,07,6.30
2020,12,04,17,08,6.30
2020,12,04,17,09,6.30
2020,12,04,17,10,6.20
2020,12,04,17,11,6.20
2020,12,04,17,12,6.20
2020,12,04,17,13,6.10
2020,12,04,17,14,6.10
2020,12,04,17,15,6.10
2020,12,04,17,16,6.00
2020,12,04,17,17,6.00
2020,12,04,17,18,6.00
2020,12,04,17,19,6.00
2020,12,04,17,20,6.00
2020,12,04,17,21,6.00
2020,12,04,17,22,6.00
2020,12,04,17,23,6.00
2020,12,04,17,24,6.00
2020,12,04,17,25,6.00
2020,12,04,17,26,6.00
2020,12,04,17,27,6.00
2020,12,04,17,28,6.00
2020,12,04,17,29,6.00
2020,12,04,17,30,5.90
2020,12,04,17,31,5.90
2020,12,04,17,32,5.90
2020,12,04,17,33,5.90
2020,12,04,17,34,5.90
2020,12,04,17,35,5.90
2020,12,04,17,36,5.90
2020,12,04,17,37,6.00
2020,12,04,17,38,6.00
2020,12,04,17,39,6.10
2020,12,04,17,40,6.10
2020,12,04,17,41,6.20
2020,12,04,17,42,6.20
2020,12,04,17,43,6.20
2020,12,04,17,44,6.30
2020,12,04,17,45,6.30
2020,12,04,17,46,6.30
2020,12,04,17,47,6.40
2020,12,04,17,48,6.40
2020,12,04,17,49,6.40
2020,12,04,17,50,6.40
2020,12,04,17,51,6.40
2020,12,04,17,52,6.50